User: anonymous
Location: Unspecified
(0.0000°N, 0.0000°E)
Time: 17:55:22
(UTC+02:00)
Language:

Meteor PRIRODA - Orbit

View from above orbital plane
View from above orbital plane
View from above satellite
View from above satellite

Ground track
Ground track

The orbit data is extracted from the following two-line orbital elements,

1 12585U 81065A   14212.72096149  .00002550  00000-0  14193-3 0  8553
2 12585 097.3210 202.5050 0018864 109.7282 299.5622 15.14368179802735
Epoch (UTC): 31 July 2014 17:18:11
Eccentricity: 0.0018864
inclination: 97.3210°
perigee height: 510 km
apogee height: 536 km
right ascension of ascending node: 202.5050°
argument of perigee: 109.7282°
revolutions per day: 15.14368179
mean anomaly at epoch: 299.5622°
orbit number at epoch: 80273

The dashed part of the orbit path shows where the satellite is in the earth's shadow,  

DLR